IRIDIUM 33 DEB, 40996

Orbit data source: Space-Track

IRIDIUM 33 DEB, 40996 is space debris in LEO originally from a launch on Sun, 14 Sep 1997 UTC launched from the Tyuratam Missile And Space Complex (TTMTR). The debris from Iridium 33, an American commercial communications satellite, has been tracked extensively since its accidental collision with the defunct Russian satellite Cosmos 2251 in 2009. This event, occurring at high speed in low Earth orbit (LEO), generated thousands of pieces of space debris, significantly increasing the risk of further collisions. The Iridium 33 debris cloud has impacted space traffic management and orbital debris mitigation strategies, making it a subject of ongoing study in space situational awareness.

Loading next visibility...
Identifier
40996, 1997-051ABJ
Orbit
LEO
Country
Flag of USUS
Related business
Manufacturer
Unknown
Mission
Spacecraft
Bus & Motor
Unknown
Mass
Unknown
Launch date (UTC)
1997-09-14 (29 years ago)
Launch vehicle
Unknown
Launch site
Tyuratam Missile And Space Complex (TTMTR)
Object type
Payload
Rocket body
Debris
Shape & HBR
Unknown shape, 0.050 m
Radar Cross Section
Small (<0.1 m²)

Expand to show TLE details & history
Last TLE update: 1 week ago

TLE from 1 week ago
0 IRIDIUM 33 DEB
1 40996U 97051ABJ 26258.87718342  .00054324  00000-0  25031-2 0  9994
2 40996  86.3437 229.3184 0010804  95.7832 264.4643 15.20004132666664
Epoch: 2026-09-15T21:03Z
TLE epoch observation values (Epoch: 2026-09-15T21:03:08.647Z)
Latitude
-0.00003°
Longitude
-81.30446°
Altitude
509.725 km
Speed
7.609 km/s
True Right ascension
15h 17m 16s
True Declination
0° 00' 00"
Sunlit
Object was in daylight at epoch
Visualization orbit readout
Latitude
Unknown
Longitude
Unknown
Altitude
Unknown
Speed
Unknown
Apparent Right ascension
Unknown
Apparent Declination
Unknown
Sunlit
N/A
Visualization observer readout
Local Sidereal Time
00:00:47
Azimuth
Unknown
Elevation
Unknown
Doppler factor
Unknown
Orbital elements
Apogee altitude
510.108 km
Perigee altitude
495.24 km
Semi-major axis
6,880.811 km
Eccentricity
0.00108
Inclination
86.3437°
RAAN
229.3184°
Arg. of periapsis
95.7832°
True anomaly
264.34109°
Mean anomaly
264.4643°
Eccentric anomaly
264.40269°
Mean motion
3.80263 °/min
Orbital period
94.67 mins
BSTAR
0.0025031
Loading maneuver chart data...
Computing Atmospheric mass density...

Documentation

Showing up to 5 results
|